Location: アルンシュタイン
(50.0000°N, 10.0000°E)
Time: 18:50:03
(UTC+02:00)

ISS - Visible Passes

Search period start: 06 July 2020 00:00
Search period end: 16 July 2020 00:00
Orbit: 417 x 421 km, 51.6° (Epoch: 06 July)

Date Brightness Start Highest point End Pass type
(mag) Time Alt. Az. Time Alt. Az. Time Alt. Az.
06 Jul -1.4 01:51:00 13° ESE 01:51:00 13° ESE 01:51:44 10° ESE visible
06 Jul -3.7 03:23:56 21° SW 03:26:01 62° SSE 03:29:20 10° ENE visible
07 Jul -3.4 02:37:47 39° S 02:38:27 45° SSE 02:41:41 10° ENE visible
07 Jul -3.5 04:11:50 10° W 04:15:11 70° N 04:18:33 10° ENE visible
08 Jul -2.6 01:51:35 29° ESE 01:51:35 29° ESE 01:53:57 10° E visible
08 Jul -3.7 03:24:30 12° WSW 03:27:32 81° NNW 03:30:55 10° ENE visible
09 Jul -1.5 01:05:20 14° E 01:05:20 14° E 01:06:05 10° E visible
09 Jul -3.9 02:38:15 28° WSW 02:39:53 82° SSE 02:43:16 10° ENE visible
09 Jul -3.3 04:13:27 10° W 04:16:48 63° N 04:20:09 10° E visible
10 Jul -3.8 01:51:53 57° SSW 01:52:15 62° SSE 01:55:36 10° ENE visible
10 Jul -3.3 03:25:45 10° W 03:29:06 64° N 03:32:27 10° E visible
11 Jul -3.0 01:05:25 37° ESE 01:05:25 37° ESE 01:07:53 10° ENE visible
11 Jul -3.5 02:38:20 12° W 02:41:24 70° N 02:44:46 10° ENE visible
11 Jul -3.5 04:15:00 10° WNW 04:18:22 75° N 04:21:44 10° E visible
12 Jul -2.0 00:18:45 20° E 00:18:45 20° E 00:20:07 10° E visible
12 Jul -3.8 01:51:38 22° W 01:53:41 81° NNW 01:57:05 10° ENE visible
12 Jul -3.4 03:27:18 10° WNW 03:30:39 67° N 03:34:00 10° E visible
12 Jul -1.6 23:31:37 13° E 23:31:37 13° E 23:32:13 10° E visible
13 Jul -3.9 01:04:26 29° WSW 01:06:01 82° SSE 01:09:23 10° ENE visible
13 Jul -3.3 02:39:35 10° W 02:42:55 63° N 02:46:17 10° E visible
13 Jul -3.8 04:16:26 10° WNW 04:19:48 72° SSW 04:23:09 10° ESE visible
13 Jul -2.1 22:40:04 10° S 22:42:03 15° SE 22:44:02 10° ESE visible
14 Jul -3.9 00:15:01 10° WSW 00:18:20 62° SSE 00:21:41 10° ENE visible
14 Jul -3.4 01:51:50 10° W 01:55:11 64° N 01:58:32 10° E visible
14 Jul -3.8 03:28:44 10° WNW 03:32:07 89° NNW 03:35:29 10° ESE visible
14 Jul -3.5 23:27:29 10° SW 23:30:42 44° SSE 23:33:56 10° ENE visible
15 Jul -3.5 01:04:04 10° W 01:07:26 70° N 01:10:48 10° ENE visible
15 Jul -3.6 02:41:01 10° WNW 02:44:23 75° N 02:47:46 10° E visible
15 Jul -3.2 04:17:55 10° W 04:21:05 37° SSW 04:24:12 10° SE visible
15 Jul -3.0 22:40:05 10° SSW 22:43:05 31° SSE 22:46:07 10° E visible
